Total_Precipitation_Accumulation
0.03 0.09 0.20 0.36 0.66 1.52 3.27 4.30 6.64 2.90 4.85 3.32 2.88 3.03 3.92 2.34 1.86 2.11 1.93 1.34 1.88 1.05 0.63 0.50 0.62 0.40 1.31 0.48 0.31 0.25 0.26 1.57 0.44 2.40 2.62 0.78 0.60 0.69 0.88 0.55 0.55 0.49 0.65 0.70 0.98 1.31 1.70 1.40 1.35 1.70 1.89 2.18 1.21 1.47 1.14 1.04 1.22 1.62 2.23 1.94 1.93 2.18 2.08 1.63 2.09 1.61 1.16 1.41 1.16 1.04 1.42 1.38 1.66 1.81 1.71 1.58 1.62 1.83 2.01 1.73 2.36 2.42 2.20 1.80 1.96 2.07 1.99 1.88 1.97 2.04 1.77 1.74 2.01 1.68 1.48 1.68 1.65
0.20 0.14 0.45 1.04 2.07 3.89 4.89 3.76 4.52 3.98 3.20 3.48 2.83 2.95 2.72 2.15 2.59 1.93 0.88 1.37 0.41 0.29 0.17 0.11 0.29 0.21 0.37 0.45 0.48 0.16 0.16 0.25 0.23 0.27 0.38 0.46 0.66 0.58 0.43 0.37 0.36 0.45 0.39 0.46 0.94 0.93 1.57 1.79 1.52 2.25 1.80 1.77 1.34 1.06 1.06 1.51 1.70 1.51 1.64 1.87 1.65 2.04 1.78 1.54 1.91 1.36 1.67 1.34 1.30 1.41 1.79 1.60 1.88 2.31 2.42 2.12 2.26 2.36 1.96 2.21 2.27 2.44 2.53 2.02 2.55 2.39 2.37 1.73 1.88 1.54 1.41 1.77 1.64 2.05 1.95 1.87 1.39
0.23 0.37 0.71 0.76 1.68 2.77 3.99 3.01 6.01 3.73 3.92 2.83 3.15 4.14 2.46 2.53 2.04 1.26 0.99 1.62 0.23 0.18 0.40 0.72 0.26 0.35 0.45 0.35 0.51 0.57 0.68 0.19 0.09 0.15 0.52 0.67 0.82 1.23 0.62 0.47 0.32 0.45 0.68 0.60 0.64 1.26 1.66 2.18 1.30 1.39 1.58 1.53 1.37 0.99 0.86 1.00 1.09 1.61 1.57 1.59 1.78 1.49 1.69 1.48 1.36 1.60 1.55 1.85 1.20 1.28 1.77 1.77 1.93 2.17 2.47 2.38 2.11 2.20 1.84 2.19 2.36 2.41 2.56 2.41 2.56 2.44 2.35 1.95 2.12 2.23 1.63 1.77 1.88 1.79 1.58 1.52 1.46
0.28 0.35 1.04 1.38 3.75 2.80 4.95 4.05 4.08 4.87 4.41 3.14 3.62 2.29 2.62 1.94 1.77 1.96 1.58 0.53 0.44 0.32 0.47 0.40 0.88 0.13 0.43 0.33 0.34 0.12 0.11 0.19 0.13 0.13 0.72 0.73 0.42 0.43 0.53 0.38 0.48 0.68 0.74 0.53 1.43 1.10 1.22 0.85 0.66 1.25 1.40 1.47 1.04 0.93 0.71 0.94 1.19 1.43 1.83 1.65 2.13 1.75 1.88 1.42 1.30 1.91 1.83 1.49 1.36 1.49 1.79 1.80 2.29 2.02 2.06 2.12 2.14 1.89 2.16 1.76 2.20 2.75 2.90 2.41 2.50 2.63 2.27 2.00 2.66 2.34 1.86 1.51 1.41 1.58 1.33 1.31 1.56
0.26 0.38 0.47 1.73 3.03 6.56 4.94 4.99 4.86 3.42 4.24 4.01 4.06 2.29 2.20 2.07 1.61 1.41 1.21 0.40 0.39 0.67 0.37 0.13 0.31 0.19 0.83 1.00 0.23 0.92 0.40 0.15 0.18 0.10 0.25 0.36 0.15 0.30 0.33 0.45 0.47 0.43 0.57 0.93 0.65 0.91 0.87 0.65 0.68 0.89 0.93 1.04 0.87 0.60 0.60 0.76 0.85 1.02 1.25 1.57 2.03 2.49 1.72 1.59 1.34 1.53 2.43 2.39 2.00 1.55 2.00 1.68 2.23 2.12 2.05 2.13 2.26 2.00 2.40 2.48 2.73 2.72 2.73 2.95 2.70 2.80 2.45 2.38 2.58 2.39 1.92 1.63 1.49 1.64 1.69 1.34 1.56
0.31 0.60 0.98 2.03 6.23 3.03 4.22 3.67 4.06 4.35 3.19 3.46 3.34 2.88 1.89 2.48 1.69 0.80 0.26 0.28 0.71 0.89 0.60 0.31 0.29 0.20 0.24 0.07 0.07 0.18 0.12 0.88 0.13 0.16 0.16 0.29 0.24 0.26 0.27 0.27 0.31 0.54 0.72 0.78 0.88 0.70 1.02 0.53 0.57 0.81 0.70 1.01 1.02 0.62 0.53 0.79 0.67 0.81 1.23 1.88 2.23 2.44 1.53 1.93 2.19 2.49 2.75 2.42 2.33 2.37 2.07 2.04 2.00 2.16 2.37 1.86 2.06 2.20 2.42 2.50 2.53 2.85 2.85 2.96 2.86 2.54 3.00 2.90 2.09 1.84 1.77 1.65 1.53 1.53 1.14 1.35 1.41
0.85 1.24 2.23 2.37 2.81 2.91 5.86 4.69 3.73 3.93 3.36 4.17 3.40 2.24 1.74 2.32 1.92 0.91 0.22 0.30 0.17 0.37 0.38 0.33 0.08 0.06 0.30 0.11 0.07 0.08 0.03 0.01 0.10 0.10 0.10 0.14 0.16 0.18 0.23 0.29 0.30 0.56 0.46 0.78 0.83 0.66 0.79 0.45 0.51 0.72 1.01 1.27 0.89 0.56 0.88 0.86 1.06 1.10 1.21 1.97 2.36 2.41 2.43 2.07 1.97 2.36 2.81 2.67 2.41 3.48 2.43 2.55 2.47 2.34 2.75 2.08 1.99 2.07 1.97 2.37 2.63 2.74 2.72 2.52 2.86 2.36 2.66 2.43 2.24 1.85 1.62 1.96 1.62 1.39 1.38 1.41 1.65
0.26 2.28 2.68 3.12 4.93 3.65 4.73 2.96 4.13 3.87 3.84 4.07 2.66 2.15 1.94 2.76 1.46 0.85 0.58 0.61 0.39 0.51 0.13 0.27 0.09 0.38 0.62 0.05 0.72 0.22 0.02 0.04 0.02 0.05 0.04 0.07 0.14 0.19 0.23 0.27 0.42 0.43 0.53 0.40 0.62 0.65 0.71 0.43 0.50 0.53 0.58 0.93 0.78 0.88 0.97 1.18 1.34 1.46 2.01 2.32 2.11 2.20 2.59 2.22 2.35 2.48 2.93 2.69 2.90 3.20 2.77 3.13 3.37 2.92 3.36 2.91 2.51 2.52 2.47 2.12 2.87 2.63 2.62 2.42 2.25 1.94 1.81 2.62 2.34 2.36 1.88 1.52 1.71 1.57 1.12 1.28 1.26
1.92 1.14 2.15 3.12 4.91 3.21 3.10 4.22 4.00 4.01 3.99 4.03 3.24 2.52 2.36 2.41 2.02 1.60 0.72 0.42 0.42 0.32 0.28 0.31 0.16 0.55 0.35 0.20 0.24 0.20 0.06 0.03 0.02 0.03 0.03 0.06 0.14 0.20 0.23 0.31 0.26 0.60 0.52 0.59 0.55 0.60 0.77 0.56 0.50 0.69 0.88 1.11 1.14 1.01 1.14 1.44 1.34 1.69 1.90 1.89 1.95 2.31 1.85 2.13 2.47 2.35 2.66 2.69 3.07 3.67 3.70 3.17 3.85 2.82 3.38 2.96 3.15 2.76 2.51 2.38 3.02 2.48 2.50 2.32 2.00 2.18 1.92 2.43 2.29 2.32 2.04 1.99 1.73 1.50 1.43 1.14 1.17
1.60 1.88 5.52 3.62 3.38 4.84 3.29 2.36 3.90 5.15 4.00 3.57 3.19 2.98 2.45 1.87 2.11 1.61 0.87 0.54 0.61 0.33 0.26 0.19 0.42 0.99 0.15 0.19 0.25 0.14 0.18 0.05 0.03 0.06 0.06 0.10 0.14 0.18 0.20 0.25 0.19 0.43 0.62 0.75 0.75 0.80 0.71 1.02 0.73 0.73 1.04 1.22 1.32 1.18 1.16 1.29 1.73 1.59 1.82 1.59 1.82 1.80 1.99 1.93 2.20 2.40 2.49 3.25 3.87 3.72 3.77 2.85 2.86 3.37 3.05 3.35 2.64 2.48 2.46 2.47 2.78 2.55 2.09 2.19 1.81 1.76 1.90 2.18 2.16 2.08 1.95 1.89 1.58 1.26 1.53 1.45 1.22
3.57 1.84 1.46 3.82 4.23 3.48 3.94 3.60 3.99 4.07 3.58 3.10 2.94 2.06 2.77 2.23 1.25 1.63 1.42 1.05 0.38 0.27 0.31 0.61 0.25 0.25 0.13 0.27 0.33 0.16 0.06 0.03 0.03 0.10 0.10 0.08 0.10 0.19 0.18 0.12 0.22 0.27 0.40 0.50 0.47 0.53 0.69 1.14 1.03 0.92 0.98 1.33 1.41 1.25 1.06 1.27 1.18 1.05 1.43 1.65 2.14 1.78 2.08 2.57 2.61 2.47 2.76 3.20 3.77 3.52 3.07 3.45 3.54 2.98 3.35 3.51 3.10 2.24 2.32 2.64 2.70 2.56 2.27 2.30 1.62 1.49 1.58 1.52 1.97 2.18 1.52 1.32 1.82 1.39 1.50 1.18 1.09
2.95 3.14 4.36 5.13 4.02 4.39 4.68 4.40 5.20 5.41 3.73 3.18 3.06 2.23 1.88 1.50 1.50 1.18 0.67 0.68 0.17 0.11 0.12 0.20 0.40 0.10 0.14 0.09 0.44 0.50 0.12 0.07 0.06 0.06 0.10 0.10 0.09 0.21 0.12 0.21 0.22 0.23 0.22 0.32 0.45 0.83 0.80 1.38 1.43 1.62 1.39 1.42 1.90 1.57 1.43 1.40 1.28 1.33 1.63 2.23 2.14 2.16 2.45 2.83 2.77 2.53 2.82 3.42 3.64 3.50 3.41 3.29 2.99 3.27 3.16 3.13 3.10 2.57 2.88 2.31 2.60 2.82 2.21 2.10 1.90 1.25 1.42 1.61 1.56 1.69 1.58 1.20 1.25 1.50 1.11 0.99 0.88
2.03 1.33 4.41 3.75 3.19 4.28 3.83 4.40 5.06 5.01 4.68 4.37 3.02 2.52 2.06 1.54 1.61 1.65 1.36 0.58 0.52 0.33 0.41 0.41 0.11 0.16 0.22 0.17 0.36 0.25 0.21 0.09 0.03 0.05 0.06 0.06 0.12 0.35 0.08 0.12 0.23 0.24 0.30 0.49 0.46 0.61 0.67 1.04 1.42 1.87 2.11 1.81 1.64 1.58 1.80 1.51 1.58 1.93 2.04 2.11 2.32 2.67 2.75 2.33 2.90 2.71 3.46 3.74 4.17 3.81 3.19 3.03 2.51 2.66 2.92 2.43 2.70 2.66 2.40 2.15 2.64 2.33 1.98 2.46 1.83 1.27 1.56 1.40 1.69 1.78 1.56 1.22 1.47 1.00 0.79 0.84 0.66
0.67 1.52 3.15 4.25 2.97 4.17 3.67 4.64 4.02 5.52 5.70 4.30 2.88 2.80 2.23 1.51 1.46 1.46 0.83 1.03 0.57 1.33 0.09 0.18 0.16 0.10 0.27 0.11 0.92 0.39 0.18 0.08 0.02 0.03 0.06 0.08 0.12 0.34 0.10 0.13 0.22 0.30 0.20 0.27 0.64 0.71 0.92 1.01 1.50 1.72 1.80 2.00 2.13 1.82 1.93 1.74 2.14 2.20 2.71 2.30 2.75 3.09 3.34 2.78 2.99 2.78 3.19 2.82 3.11 3.46 3.78 3.66 3.30 3.00 3.07 2.97 2.80 2.63 2.08 1.95 2.03 1.99 1.92 1.93 1.94 1.70 1.42 1.19 1.22 1.45 1.30 1.00 1.04 0.80 0.70 0.77 0.91
0.46 0.73 2.84 2.29 3.38 2.31 3.05 5.30 5.62 3.80 5.95 4.47 2.37 2.02 2.00 1.71 1.54 1.30 1.39 1.08 0.54 0.56 0.18 0.03 0.10 0.76 0.52 0.46 0.37 0.15 0.08 0.06 0.02 0.03 0.07 0.06 0.06 0.09 0.08 0.14 0.21 0.23 0.36 0.42 0.63 1.04 0.95 0.99 1.06 1.32 1.65 1.90 1.81 1.87 2.59 2.51 2.15 2.48 2.46 2.78 2.95 2.77 3.64 3.77 3.24 4.31 3.68 3.30 3.69 3.27 3.79 4.05 4.16 4.04 3.78 3.66 3.17 2.86 2.12 2.10 2.11 1.99 1.97 1.82 2.07 2.00 1.83 1.39 1.41 1.17 0.97 0.73 0.54 0.56 0.61 0.55 0.87
0.21 0.92 2.04 3.71 3.45 2.57 2.73 3.45 3.29 4.76 4.96 4.63 2.86 2.10 2.29 1.68 1.45 1.21 1.09 0.76 0.20 0.23 0.14 0.76 0.05 0.31 0.06 0.20 0.04 0.01 0.03 0.03 0.03 0.04 0.05 0.09 0.15 0.13 0.17 0.18 0.20 0.31 0.29 0.30 0.55 0.63 0.64 0.85 0.95 1.27 1.25 1.29 1.79 2.13 1.93 2.30 2.12 2.85 2.54 3.16 2.70 3.32 3.48 3.56 4.04 4.19 4.72 4.43 4.22 3.73 3.98 4.37 4.31 3.44 3.89 2.60 3.45 2.77 2.52 2.29 1.80 1.76 2.18 2.08 2.12 1.75 2.04 1.48 1.74 0.93 0.82 0.62 0.57 0.70 0.76 0.79 0.95
0.22 1.01 2.53 2.57 4.15 3.07 4.34 4.67 2.37 5.45 3.15 3.95 1.97 2.07 2.29 1.06 1.01 1.48 0.78 0.55 0.73 0.19 0.22 0.25 0.12 0.15 0.14 0.04 0.00 0.00 0.01 0.03 0.02 0.06 0.08 0.16 0.16 0.32 0.40 0.33 0.36 0.41 0.45 0.40 0.39 0.53 0.75 0.69 0.62 0.99 1.09 1.27 1.52 1.17 1.65 1.96 1.89 2.34 2.68 3.29 3.61 3.93 3.65 3.73 3.59 4.53 5.21 4.34 4.24 4.47 3.34 3.25 3.35 2.94 2.73 2.86 3.18 2.72 2.35 2.14 1.92 1.65 1.59 1.82 1.97 2.11 1.48 1.62 1.64 1.37 1.00 0.62 0.64 0.70 0.77 1.05 0.72
0.34 1.79 1.61 2.49 2.52 2.80 3.57 4.18 4.01 2.79 3.49 2.69 2.17 2.06 2.33 1.61 0.82 1.17 0.46 0.74 0.88 0.38 0.63 0.25 0.35 0.15 0.05 0.00 0.00 0.00 0.01 0.03 0.04 0.05 0.09 0.09 0.14 0.20 0.35 0.32 0.28 0.42 0.41 0.50 0.52 0.62 0.49 0.69 0.64 0.71 1.00 1.05 1.21 1.06 1.01 1.42 1.93 2.11 2.40 3.02 2.63 3.37 3.77 3.64 3.52 3.89 3.90 3.95 4.25 3.78 3.60 3.56 3.01 2.70 2.72 2.76 2.74 2.16 2.35 2.05 1.88 1.34 1.63 1.56 1.69 1.81 1.24 1.70 1.18 1.17 1.06 1.04 0.96 0.70 0.61 0.80 0.87
0.45 0.82 1.78 2.66 1.79 1.57 1.92 1.95 3.35 3.56 2.47 2.28 2.28 1.85 2.11 2.11 0.57 1.01 1.66 0.68 0.75 0.31 0.77 0.90 0.44 0.14 0.04 0.01 0.00 0.01 0.02 0.04 0.05 0.02 0.04 0.04 0.08 0.07 0.17 0.14 0.22 0.25 0.45 0.45 0.55 0.50 0.49 0.45 0.43 0.58 0.67 0.99 1.01 1.12 0.96 1.09 1.38 1.78 2.65 1.98 2.37 2.78 3.28 2.61 2.34 2.62 2.85 2.94 2.62 2.99 4.00 3.12 2.39 2.38 2.53 2.10 2.62 1.97 1.19 1.97 2.10 1.66 1.70 1.34 1.28 1.45 1.68 1.40 1.06 0.87 0.73 0.81 0.81 0.82 0.97 1.06 0.81
0.34 0.66 2.13 2.52 1.12 1.69 1.29 2.73 2.73 3.14 2.36 2.11 2.20 1.42 2.22 1.61 1.89 0.78 1.26 1.27 1.10 0.97 0.94 0.62 0.70 0.19 0.03 0.07 0.03 0.02 0.03 0.03 0.02 0.02 0.02 0.01 0.02 0.04 0.09 0.08 0.14 0.11 0.17 0.22 0.34 0.44 0.48 0.43 0.56 0.98 1.12 1.03 1.11 1.47 1.06 1.22 1.30 2.09 1.75 1.40 1.84 2.41 2.40 2.06 2.95 2.50 2.65 2.52 2.54 2.63 2.75 2.15 2.26 2.15 1.98 1.75 2.01 1.60 1.80 1.94 1.98 1.81 1.48 1.28 1.00 1.18 0.97 1.07 0.76 0.74 0.86 0.69 1.01 1.25 1.40 1.41 0.85
1.11 0.61 1.18 2.30 1.01 1.33 1.48 2.55 2.93 2.58 2.42 2.97 1.93 1.86 1.81 1.47 1.47 1.29 1.13 1.44 1.16 1.25 0.74 1.21 1.27 0.61 0.09 0.05 0.02 0.01 0.03 0.03 0.04 0.01 0.01 0.02 0.02 0.02 0.05 0.03 0.07 0.05 0.14 0.16 0.30 0.34 0.34 0.41 0.57 0.78 0.81 0.84 1.06 1.02 1.12 1.27 1.43 1.76 2.20 1.87 1.77 1.87 2.06 2.01 2.15 2.28 2.28 2.08 2.12 2.72 1.87 1.93 1.60 1.83 2.15 2.13 2.02 1.35 1.23 1.58 1.85 1.59 1.21 1.55 1.24 1.66 1.21 1.21 1.26 1.41 1.65 1.29 1.06 0.82 1.07 1.13 0.88
0.09 0.48 0.59 0.81 0.83 1.17 1.15 1.33 1.38 1.99 3.07 4.03 2.20 1.73 2.32 1.79 0.82 1.04 1.07 1.74 1.97 0.68 0.67 0.42 0.89 0.58 0.20 0.03 0.02 0.02 0.01 0.01 0.01 0.01 0.01 0.01 0.01 0.02 0.02 0.03 0.03 0.05 0.10 0.19 0.20 0.21 0.28 0.37 0.51 0.57 0.82 1.03 0.74 0.88 1.48 1.24 1.35 2.03 1.93 1.47 1.70 1.51 1.87 2.08 1.97 2.03 1.89 1.63 2.44 1.75 1.11 1.39 1.72 1.47 1.65 1.57 1.47 0.87 1.01 1.15 1.11 1.55 1.33 1.33 1.53 1.50 1.46 1.46 1.17 1.29 1.22 1.01 0.87 1.13 0.61 0.52 0.58
0.81 0.63 0.58 0.57 0.42 0.95 0.52 1.08 1.87 2.50 2.54 2.71 1.68 2.27 1.53 1.42 1.38 1.25 0.99 2.24 1.52 0.56 0.25 0.29 0.24 0.29 0.26 0.05 0.01 0.01 0.01 0.00 0.02 0.01 0.00 0.01 0.01 0.02 0.01 0.02 0.03 0.07 0.09 0.18 0.12 0.19 0.21 0.30 0.30 0.42 0.48 0.53 0.65 0.78 0.87 1.31 1.39 1.13 2.07 1.48 1.48 1.57 1.65 3.04 2.78 1.88 1.73 1.70 1.92 1.80 1.92 1.66 1.44 1.69 1.15 1.33 1.19 1.05 0.67 0.79 0.90 1.13 1.30 1.32 1.49 0.77 0.91 0.92 0.95 0.96 0.54 0.46 0.83 1.17 0.73 0.55 0.57
0.11 0.75 0.44 0.70 0.52 0.23 0.46 1.24 2.19 2.29 2.05 2.55 2.56 1.70 1.76 1.42 1.67 0.89 1.46 0.94 1.05 0.54 0.44 0.32 0.46 0.11 0.15 0.21 0.03 0.01 0.01 0.02 0.00 0.00 0.00 0.01 0.00 0.01 0.02 0.03 0.02 0.03 0.04 0.09 0.15 0.16 0.23 0.37 0.44 0.50 0.50 0.55 1.03 0.78 1.12 1.21 1.28 1.36 1.25 1.54 1.27 1.27 1.49 2.19 2.29 2.97 2.70 2.26 2.10 2.03 1.85 1.46 1.46 1.47 0.80 1.10 0.87 0.53 0.27 0.49 1.03 0.93 1.37 1.16 1.02 1.62 1.51 1.40 0.78 1.03 0.38 0.53 0.50 0.84 0.58 0.85 1.42
0.24 0.28 0.40 0.48 0.62 0.51 0.76 0.98 2.18 3.16 4.65 3.43 2.35 1.82 2.29 1.28 1.11 0.53 1.10 0.60 0.58 0.69 0.14 0.09 0.28 0.39 0.12 0.09 0.10 0.04 0.01 0.03 0.01 0.01 0.01 0.01 0.01 0.02 0.03 0.03 0.04 0.03 0.06 0.07 0.09 0.16 0.32 0.33 0.34 0.36 0.50 0.47 0.54 0.62 0.89 0.87 0.87 0.87 1.17 1.18 1.46 1.64 1.67 1.73 1.50 2.30 2.59 1.99 2.19 2.26 2.15 1.82 1.57 1.47 1.45 1.23 0.45 0.39 0.42 0.60 1.12 1.18 1.24 0.86 0.55 1.18 1.01 0.78 0.77 0.58 0.82 0.85 0.93 0.55 0.61 0.79 0.59
0.07 0.37 0.12 0.35 0.56 0.61 1.11 1.19 1.71 1.80 2.63 3.45 3.40 3.01 2.32 1.37 0.68 1.36 1.40 0.82 0.78 0.34 0.09 0.13 0.32 0.28 0.40 0.28 0.19 0.06 0.05 0.10 0.02 0.03 0.01 0.07 0.02 0.03 0.03 0.02 0.04 0.05 0.03 0.06 0.08 0.12 0.23 0.33 0.19 0.30 0.38 0.44 0.65 1.00 1.12 1.31 1.11 0.92 1.20 1.27 1.19 1.79 1.70 1.15 1.43 1.27 1.82 1.95 1.91 2.39 2.04 2.07 0.96 0.76 0.63 0.47 0.38 0.43 0.40 0.32 0.78 1.12 1.06 0.72 0.91 1.02 1.26 1.11 0.96 0.43 0.52 0.46 0.44 0.97 0.46 0.39 0.40
0.02 0.12 0.45 0.49 1.00 0.74 1.16 1.02 1.16 1.96 2.18 2.77 4.20 3.59 2.96 1.36 0.70 1.43 1.28 0.42 0.34 0.45 0.13 0.13 0.44 0.27 0.43 0.25 0.26 0.20 0.07 0.10 0.06 0.12 0.08 0.05 0.03 0.02 0.03 0.02 0.02 0.06 0.05 0.06 0.08 0.08 0.13 0.17 0.21 0.28 0.31 0.30 0.37 0.62 0.61 0.66 0.59 0.97 0.94 1.28 1.20 1.17 1.19 1.42 1.66 1.28 1.20 2.42 1.72 2.02 1.99 1.78 0.65 0.81 0.43 0.48 0.35 0.38 0.56 0.68 0.71 0.88 0.92 1.04 0.86 1.14 0.95 1.04 0.93 0.65 0.81 0.88 0.70 0.86 0.36 0.60 0.22
0.04 0.07 0.34 0.61 0.73 0.73 1.04 1.80 1.19 1.97 2.69 2.87 6.19 4.91 3.22 2.49 1.20 1.47 0.81 0.38 0.60 0.66 0.14 0.17 0.05 0.19 0.27 0.28 0.23 0.11 0.08 0.08 0.11 0.07 0.16 0.03 0.03 0.03 0.02 0.03 0.02 0.07 0.06 0.07 0.07 0.03 0.07 0.10 0.20 0.22 0.25 0.29 0.34 0.38 0.58 0.37 0.60 0.65 0.70 0.98 0.85 0.98 1.20 0.93 1.22 0.96 0.96 2.00 1.16 1.54 2.25 1.37 0.76 0.49 0.60 0.49 0.48 0.51 0.65 0.88 0.95 0.75 0.91 1.00 0.87 1.19 0.98 0.82 1.10 1.04 0.85 1.05 0.80 0.60 0.55 0.56 0.35
0.02 0.18 0.72 0.96 1.17 1.26 1.48 1.77 2.25 2.40 2.07 2.89 4.07 4.05 4.64 5.18 2.43 1.21 0.73 0.39 0.38 0.47 0.16 0.22 0.15 0.37 0.11 0.26 0.29 0.03 0.21 0.06 0.06 0.17 0.18 0.10 0.05 0.01 0.06 0.04 0.03 0.06 0.04 0.04 0.05 0.06 0.07 0.07 0.14 0.15 0.23 0.22 0.22 0.31 0.31 0.45 0.43 0.49 0.66 0.61 0.53 0.55 1.27 1.30 1.38 1.10 0.73 1.07 1.15 1.54 1.72 1.26 0.63 0.38 0.55 0.36 0.53 0.68 0.75 0.91 0.88 1.04 0.95 1.14 0.81 1.08 0.99 0.69 0.49 0.75 0.87 0.73 0.65 0.63 0.55 0.30 0.28
0.03 0.07 0.44 0.64 1.07 1.55 1.35 2.09 2.46 2.27 2.80 2.63 2.76 3.00 2.83 3.66 3.64 1.26 0.53 0.58 0.55 0.32 0.41 0.06 0.37 0.16 0.18 0.08 0.38 0.06 0.07 0.08 0.09 0.13 0.20 0.24 0.10 0.08 0.18 0.12 0.04 0.05 0.05 0.06 0.06 0.12 0.10 0.11 0.12 0.13 0.13 0.17 0.20 0.34 0.23 0.39 0.29 0.44 0.77 0.41 0.52 0.71 0.83 1.21 1.38 0.60 0.81 0.92 0.63 0.77 1.28 1.12 0.71 0.68 0.65 0.64 0.66 0.35 0.78 1.14 0.78 0.97 0.92 0.96 1.09 1.00 0.91 0.69 0.74 0.50 0.46 0.29 0.41 0.41 0.31 0.31 0.24
0.31 0.16 0.26 0.64 0.69 1.85 1.32 1.21 1.94 2.07 1.77 1.41 2.03 2.31 2.47 3.52 1.98 1.76 1.38 1.39 0.39 0.48 0.32 0.27 0.47 0.38 0.48 0.12 0.09 0.05 0.09 0.05 0.10 0.09 0.05 0.08 0.12 0.10 0.27 0.10 0.24 0.63 0.17 0.21 0.20 0.19 0.07 0.11 0.07 0.15 0.08 0.18 0.19 0.33 0.38 0.50 0.26 0.30 0.34 0.45 0.50 0.75 1.29 0.66 0.55 0.52 0.63 0.94 0.73 0.56 0.78 0.68 0.66 0.86 0.83 0.79 0.45 0.61 0.71 0.84 0.98 0.72 0.89 0.94 1.17 1.17 0.87 0.63 0.54 0.49 0.33 0.44 0.33 0.24 0.30 0.11 0.18
0.12 0.15 0.49 0.26 0.50 2.51 1.32 0.79 1.59 1.52 1.41 1.49 1.31 2.30 2.67 2.38 1.87 1.33 2.45 2.53 1.03 0.74 0.34 0.15 0.77 0.79 0.21 0.19 0.31 0.11 0.17 0.11 0.11 0.04 0.14 0.15 0.15 0.38 0.37 0.37 0.32 0.89 1.21 1.01 0.69 0.18 0.15 0.13 0.14 0.14 0.16 0.12 0.24 0.46 0.30 0.33 0.42 0.44 0.77 1.00 1.09 0.96 0.62 0.64 0.70 0.87 0.66 1.14 1.12 0.63 0.57 0.62 0.47 0.95 0.91 0.71 0.50 0.66 1.21 0.99 0.95 1.04 0.69 0.87 0.81 0.69 0.81 0.53 0.36 0.38 0.36 0.32 0.19 0.31 0.25 0.20 0.20
0.06 0.12 0.28 0.55 0.46 1.22 1.68 1.72 1.38 1.66 1.87 1.85 2.10 2.88 2.18 1.94 1.80 1.51 1.26 1.92 0.87 0.46 0.34 0.15 0.42 0.42 0.26 0.31 0.11 0.13 0.15 0.11 0.14 0.34 0.19 0.06 0.26 0.20 0.23 0.82 1.33 1.33 0.68 0.66 0.18 0.39 0.29 0.18 0.45 0.12 0.15 0.10 0.29 0.22 0.32 0.31 0.59 0.68 0.73 1.09 0.80 0.75 0.62 0.58 0.72 0.81 0.63 1.06 1.36 0.85 0.46 0.48 1.16 0.96 0.94 0.97 1.09 0.74 1.05 0.84 1.19 0.92 0.95 0.81 0.91 0.91 0.54 0.27 0.79 0.29 0.12 0.26 0.26 0.28 0.27 0.23 0.18
0.15 0.05 0.42 0.92 0.94 0.84 1.94 0.86 1.64 1.73 1.96 2.25 1.05 1.93 1.88 1.07 1.43 1.26 1.27 1.36 0.69 0.22 0.23 0.36 0.88 0.47 0.18 0.17 0.09 0.10 0.08 0.15 0.17 0.44 0.21 0.23 0.20 0.14 0.10 0.26 0.92 0.77 0.67 0.45 0.43 0.26 0.22 0.16 0.14 0.14 0.12 0.05 0.20 0.18 0.38 0.41 0.61 0.69 0.61 0.61 0.40 0.67 0.74 0.51 0.44 0.34 0.63 0.67 0.96 0.41 0.38 0.41 1.20 1.00 1.10 0.75 1.00 0.80 0.74 1.08 0.94 0.77 0.92 0.93 0.84 0.64 0.62 0.45 0.45 0.34 0.42 0.35 0.26 0.32 0.57 0.27 0.25
0.23 0.44 0.30 0.73 0.51 1.01 1.30 0.83 1.32 1.39 1.41 2.13 1.47 1.91 1.83 1.55 0.82 1.44 1.11 1.33 0.76 0.41 0.22 0.61 0.49 0.15 0.23 0.13 0.27 0.27 0.25 0.21 0.26 0.38 0.32 0.10 0.25 0.15 0.42 0.54 0.35 0.34 0.46 0.44 0.27 0.06 0.11 0.15 0.19 0.10 0.11 0.20 0.21 0.35 0.31 0.28 0.55 0.52 0.52 0.53 0.52 0.63 0.76 0.43 0.69 0.67 0.59 0.57 0.55 0.52 0.99 0.98 1.29 0.74 0.97 1.00 0.73 0.92 1.12 1.07 1.00 0.80 1.12 0.95 0.61 0.98 1.04 0.67 0.51 0.48 0.28 0.27 0.24 0.29 0.34 0.42 0.41
0.18 0.35 0.60 0.76 1.08 1.34 1.60 1.05 0.68 0.89 1.64 1.81 2.06 1.64 2.06 1.64 2.09 2.22 2.16 1.05 1.22 0.57 0.53 0.84 0.43 0.37 0.46 0.66 0.52 0.66 0.33 0.47 0.98 0.48 0.23 0.21 0.40 0.29 0.38 0.33 0.35 0.53 0.60 0.52 0.19 0.11 0.26 0.15 0.12 0.10 0.11 0.22 0.21 0.39 0.23 0.33 0.35 0.38 0.40 0.41 0.46 0.62 0.52 0.32 0.26 0.26 0.31 0.44 0.31 0.27 0.35 0.56 0.89 1.25 1.78 1.66 0.90 1.15 0.90 0.76 0.96 0.80 0.63 0.59 0.62 0.69 0.70 1.13 0.75 0.79 0.46 0.80 0.44 0.14 0.12 0.17 0.22
0.03 0.10 0.22 0.77 0.52 0.79 0.82 1.11 0.90 1.49 1.99 1.76 2.54 2.07 2.00 1.54 1.76 2.18 2.63 1.83 1.73 1.21 1.05 1.08 0.74 0.87 1.04 1.37 1.23 0.42 0.32 1.01 0.62 0.53 0.51 0.35 1.07 0.84 0.97 0.80 0.67 0.34 0.16 0.12 0.24 0.48 0.34 0.18 0.20 0.17 0.13 0.11 0.18 0.17 0.26 0.26 0.29 0.35 0.36 0.19 0.24 0.55 0.29 0.17 0.20 0.27 0.32 0.35 0.22 0.44 0.59 0.73 1.13 1.88 1.14 1.12 0.63 0.35 0.54 0.91 0.64 0.86 1.21 0.60 0.52 0.72 0.74 0.88 0.84 0.78 0.89 0.91 0.64 0.45 0.28 0.28 0.16
0.12 0.07 0.32 0.47 0.50 1.00 0.94 1.18 1.27 2.43 1.69 1.91 2.11 2.43 2.75 2.31 2.17 2.26 2.61 1.60 1.39 0.80 0.67 0.68 1.50 0.75 1.53 1.04 1.07 0.72 0.67 0.74 0.86 0.54 0.89 0.88 1.14 0.93 0.66 0.69 0.80 0.21 0.14 0.08 0.17 0.65 0.52 0.19 0.24 0.22 0.16 0.10 0.14 0.21 0.31 0.28 0.22 0.19 0.32 0.34 0.17 0.17 0.29 0.15 0.18 0.20 0.43 0.44 0.22 0.49 0.60 0.77 0.63 0.60 0.59 0.42 0.34 0.44 0.58 0.45 0.43 0.50 0.46 0.59 0.67 0.59 0.81 0.86 0.54 0.59 0.69 0.69 0.44 0.46 0.37 0.26 0.22
0.04 0.12 0.39 0.59 0.48 0.62 0.79 1.67 1.30 2.03 1.57 2.92 2.92 2.81 3.59 3.10 2.65 2.67 2.43 1.50 1.77 1.35 1.10 1.48 0.84 1.07 1.01 1.23 0.62 0.47 0.69 0.64 0.58 1.11 1.12 0.92 1.26 0.96 0.47 0.69 0.66 0.58 0.31 0.11 0.51 0.58 0.23 0.23 0.29 0.24 0.20 0.19 0.15 0.24 0.19 0.32 0.20 0.24 0.26 0.27 0.28 0.09 0.15 0.14 0.14 0.11 0.34 0.68 0.12 0.48 0.71 0.28 0.23 0.26 0.28 0.30 0.30 0.36 0.80 0.34 0.37 0.39 0.38 0.48 0.51 0.63 0.68 0.46 0.73 0.41 0.46 0.54 0.45 0.42 0.34 0.28 0.22
0.02 0.04 0.14 0.23 0.70 0.31 0.67 1.73 1.73 2.80 1.02 2.99 2.41 1.63 3.12 3.84 3.33 3.28 2.55 1.69 2.05 2.50 1.85 1.14 1.53 1.90 1.24 0.87 0.92 0.32 0.40 0.83 0.87 0.82 0.96 1.92 1.24 1.23 0.96 0.68 0.74 0.50 0.65 0.13 0.12 0.25 0.20 0.16 0.22 0.20 0.18 0.21 0.14 0.18 0.18 0.22 0.19 0.28 0.40 0.17 0.57 0.20 0.16 0.28 0.25 0.16 0.39 0.57 0.26 0.52 0.50 0.25 0.42 0.31 0.38 0.37 0.32 0.50 0.34 0.20 0.20 0.27 0.42 0.45 0.34 0.42 0.44 0.45 0.51 0.42 0.39 0.42 0.30 0.32 0.19 0.11 0.10
0.00 0.00 0.02 0.12 0.12 0.34 0.42 0.94 0.48 1.75 1.81 1.26 2.52 3.07 3.38 2.57 3.17 2.42 2.51 1.81 2.64 2.34 2.67 2.10 1.92 1.83 1.30 1.19 0.75 0.77 0.69 0.62 1.26 0.92 1.45 1.84 1.04 1.27 0.98 0.85 1.05 0.86 0.52 0.26 0.18 0.26 0.24 0.27 0.16 0.20 0.22 0.19 0.15 0.40 0.14 0.13 0.37 0.34 0.52 0.39 0.49 0.52 0.20 0.19 0.48 0.23 0.22 0.20 0.11 0.20 0.19 0.14 0.12 0.25 0.25 0.22 0.16 0.37 0.35 0.09 0.17 0.19 0.25 0.26 0.24 0.39 0.40 0.39 0.34 0.29 0.24 0.20 0.45 0.47 0.30 0.22 0.10
0.00 0.00 0.02 0.03 0.03 0.40 0.13 0.21 0.20 0.82 1.58 0.84 0.98 2.16 3.41 1.63 1.83 1.32 1.71 2.12 1.93 2.25 2.21 1.92 1.57 1.38 0.63 0.63 0.50 1.27 1.77 1.72 1.40 0.71 0.81 1.62 1.14 1.06 1.04 0.97 1.13 0.81 0.45 0.39 0.49 0.33 0.40 0.26 0.24 0.35 0.45 0.30 0.20 0.23 0.40 0.08 0.13 0.19 0.26 0.24 0.39 0.26 0.12 0.18 0.28 0.09 0.13 0.10 0.15 0.09 0.18 0.10 0.08 0.16 0.48 0.49 0.25 0.21 0.34 0.15 0.12 0.19 0.26 0.21 0.20 0.26 0.24 0.24 0.25 0.31 0.25 0.41 0.39 0.39 0.41 0.31 0.26
0.00 0.04 0.00 0.01 0.03 0.25 0.20 0.29 0.46 0.70 1.27 1.16 0.67 1.00 2.49 1.87 1.69 1.85 1.93 1.58 1.85 2.67 1.86 1.62 1.59 1.35 0.73 0.65 0.56 1.24 2.48 2.55 1.38 1.16 1.42 1.31 1.05 1.05 1.01 0.54 0.49 0.88 0.47 0.70 0.74 0.88 0.65 0.85 0.62 0.42 0.32 0.51 0.22 0.25 0.20 0.09 0.18 0.22 0.14 0.17 0.16 0.21 0.10 0.09 0.08 0.06 0.07 0.06 0.21 0.08 0.03 0.07 0.21 0.27 0.15 0.17 0.24 0.35 0.20 0.11 0.22 0.16 0.17 0.27 0.16 0.23 0.29 0.37 0.39 0.32 0.29 0.23 0.31 0.33 0.33 0.38 0.40
0.01 0.00 0.02 0.01 0.04 0.08 0.03 0.20 0.40 0.84 0.49 0.92 0.83 0.40 1.48 1.65 1.48 1.27 1.92 1.86 1.81 2.01 1.55 2.18 1.72 0.99 1.13 0.55 1.05 1.65 2.36 2.52 1.94 1.30 1.38 1.10 1.45 1.13 1.08 1.54 1.06 0.53 0.78 1.24 1.38 1.32 1.27 0.84 0.54 0.73 0.58 0.35 0.41 0.30 0.14 0.24 0.21 0.13 0.20 0.10 0.17 0.09 0.03 0.03 0.04 0.06 0.08 0.08 0.05 0.04 0.04 0.07 0.43 0.12 0.10 0.21 0.24 0.23 0.10 0.13 0.16 0.18 0.20 0.18 0.16 0.17 0.18 0.33 0.30 0.31 0.17 0.28 0.26 0.27 0.30 0.47 0.42
0.02 0.01 0.01 0.01 0.09 0.03 0.01 0.03 0.13 0.26 0.17 0.91 0.59 0.44 0.92 1.01 1.49 0.99 1.70 2.43 2.01 2.09 2.13 1.51 1.22 0.83 0.64 0.70 0.61 1.01 1.77 1.68 1.87 1.66 1.60 0.94 1.11 1.04 0.90 1.04 0.93 0.69 1.06 0.92 1.18 1.37 1.09 2.02 2.31 1.36 0.99 0.96 0.55 0.17 0.23 0.19 0.41 0.21 0.29 0.11 0.11 0.11 0.07 0.07 0.05 0.05 0.17 0.05 0.10 0.05 0.10 0.08 0.07 0.12 0.14 0.26 0.17 0.12 0.09 0.09 0.11 0.15 0.17 0.17 0.19 0.35 0.35 0.29 0.28 0.29 0.23 0.25 0.19 0.26 0.40 0.44 0.48
0.00 0.00 0.00 0.00 0.04 0.07 0.05 0.10 0.24 0.29 0.13 0.34 0.23 0.39 0.65 1.06 1.65 1.17 1.55 1.69 1.20 1.28 1.45 1.25 1.45 0.90 0.62 0.57 0.72 0.74 0.90 0.92 2.09 2.00 1.72 1.75 1.67 1.29 1.09 1.10 1.22 1.07 1.14 1.05 2.15 3.02 2.32 2.35 1.91 1.94 0.82 0.49 0.62 0.45 0.36 0.35 0.21 0.35 0.28 0.32 0.15 0.08 0.08 0.05 0.07 0.07 0.14 0.05 0.12 0.11 0.09 0.08 0.05 0.06 0.11 0.08 0.23 0.10 0.06 0.06 0.08 0.14 0.11 0.13 0.10 0.43 0.33 0.24 0.20 0.26 0.24 0.22 0.49 0.34 0.44 0.36 0.38
0.00 0.00 0.00 0.01 0.02 0.02 0.07 0.30 0.53 0.39 0.23 0.19 0.14 0.27 0.18 1.16 1.13 0.69 1.23 0.61 0.84 0.83 1.25 1.24 1.20 0.91 0.74 0.59 0.45 0.42 0.46 0.49 1.47 2.02 2.45 1.59 1.89 1.29 1.24 0.95 1.28 1.13 1.12 1.90 1.74 2.32 1.99 2.37 2.80 2.58 1.71 1.54 1.24 0.56 0.42 0.44 0.81 0.59 0.25 0.24 0.20 0.12 0.07 0.05 0.14 0.09 0.10 0.13 0.12 0.12 0.13 0.10 0.06 0.07 0.11 0.06 0.05 0.04 0.05 0.03 0.03 0.06 0.08 0.19 0.20 0.19 0.14 0.13 0.13 0.17 0.20 0.49 0.30 0.27 0.22 0.30 0.28
0.00 0.01 0.20 0.09 0.27 0.57 0.52 1.15 1.33 0.39 0.28 0.13 0.29 0.38 0.45 0.71 1.45 1.13 0.39 0.33 0.24 0.49 1.12 1.45 1.31 0.81 0.70 0.68 0.88 0.39 0.47 0.49 0.75 1.48 1.80 1.79 1.42 1.26 0.91 1.06 1.21 1.01 0.94 1.16 1.64 1.57 1.71 1.79 3.29 1.99 2.03 2.02 1.61 1.41 1.35 1.22 0.94 0.52 0.95 0.16 0.18 0.48 0.31 0.26 0.11 0.12 0.09 0.09 0.06 0.15 0.11 0.08 0.05 0.04 0.07 0.04 0.03 0.02 0.02 0.02 0.06 0.05 0.09 0.10 0.08 0.11 0.18 0.19 0.42 0.33 0.37 0.26 0.22 0.18 0.19 0.62 0.60
0.00 0.03 0.05 0.24 0.75 1.07 0.49 1.17 0.55 0.40 0.60 0.64 0.51 0.69 1.38 0.41 0.48 0.42 0.40 0.24 0.63 0.42 0.48 0.57 1.01 0.94 0.78 0.60 0.69 0.84 0.84 0.58 0.82 0.58 0.87 1.06 1.00 1.00 0.97 0.87 1.13 1.17 1.21 1.07 1.36 1.65 1.10 1.93 1.83 1.90 1.67 2.59 1.39 1.53 1.15 1.16 0.88 0.81 0.65 0.36 0.51 0.65 0.47 0.17 0.15 0.38 0.05 0.10 0.05 0.42 0.29 0.21 0.05 0.04 0.04 0.05 0.02 0.01 0.07 0.02 0.04 0.10 0.06 0.05 0.09 0.13 0.16 0.13 0.28 0.23 0.28 0.14 0.17 0.19 0.23 0.19 0.15
0.01 0.03 0.06 0.06 0.28 0.25 0.33 0.25 0.24 0.36 0.26 0.39 0.55 0.93 0.76 0.47 0.31 0.17 0.32 0.42 0.24 0.55 0.55 0.48 0.79 0.84 0.74 0.52 0.32 0.64 0.67 0.55 0.53 0.49 0.54 0.50 0.95 1.03 0.82 0.69 0.72 1.05 1.00 0.93 1.13 1.50 0.88 1.06 1.43 1.71 1.51 2.20 2.84 2.47 1.62 1.23 1.22 0.72 0.59 0.85 0.57 0.42 0.42 0.13 0.12 0.12 0.17 0.06 0.32 0.29 0.14 0.12 0.05 0.06 0.04 0.03 0.01 0.03 0.03 0.04 0.03 0.08 0.04 0.06 0.05 0.12 0.10 0.11 0.12 0.24 0.17 0.17 0.16 0.20 0.24 0.28 0.23
0.08 0.02 0.03 0.05 0.14 0.19 0.41 0.38 0.56 0.31 0.84 0.57 0.68 0.35 0.97 0.62 3.08 0.27 0.55 0.13 0.17 0.18 0.28 0.37 0.53 1.09 1.14 0.94 0.52 0.55 0.43 0.60 0.62 0.39 0.55 0.62 0.55 1.08 0.95 0.91 0.87 1.45 1.86 0.89 1.42 1.16 0.76 1.08 0.79 1.08 1.17 0.89 1.59 2.62 2.54 1.80 1.55 0.78 0.85 1.21 1.38 1.13 0.85 0.37 0.17 0.37 0.36 0.16 0.36 0.19 0.12 0.09 0.05 0.03 0.02 0.02 0.03 0.05 0.05 0.02 0.02 0.06 0.03 0.05 0.05 0.06 0.05 0.06 0.08 0.07 0.28 0.11 0.42 0.18 0.13 0.14 0.17
0.01 0.09 0.04 0.01 0.03 0.01 0.09 0.26 0.19 0.22 0.32 0.46 0.78 0.59 0.52 0.89 0.48 0.40 0.36 0.34 0.28 0.29 0.48 0.61 1.09 0.98 1.05 1.09 1.09 0.78 0.51 1.00 0.83 0.77 0.88 0.72 0.42 0.67 0.72 1.01 1.27 0.93 1.40 1.03 1.01 1.15 0.77 1.43 0.96 0.88 0.68 0.91 1.21 1.80 2.90 2.17 1.45 1.32 1.22 0.96 0.49 0.51 0.38 0.57 0.96 0.95 0.26 0.19 0.19 0.19 0.39 0.53 0.11 0.03 0.03 0.03 0.03 0.01 0.05 0.05 0.04 0.05 0.04 0.05 0.04 0.05 0.07 0.05 0.07 0.12 0.24 0.25 0.25 0.17 0.27 0.22 0.22
0.02 0.02 0.06 0.00 0.01 0.01 0.16 0.04 0.07 0.08 0.21 0.41 0.24 0.45 0.25 0.17 0.34 0.39 0.74 0.85 0.61 0.49 0.50 0.38 0.78 0.84 0.73 0.74 0.81 1.04 0.54 0.62 0.49 0.55 0.80 0.55 0.65 0.26 0.28 0.85 1.28 0.82 0.93 0.63 0.87 0.95 1.10 1.07 0.95 1.08 0.86 0.89 1.01 0.63 1.42 2.48 1.53 1.92 1.36 1.53 1.05 1.11 0.67 0.34 0.28 0.19 0.17 0.17 0.16 0.19 0.44 0.40 0.11 0.09 0.07 0.05 0.02 0.02 0.05 0.03 0.02 0.03 0.02 0.03 0.03 0.03 0.04 0.06 0.11 0.06 0.17 0.22 0.26 0.38 0.29 0.15 0.17
0.01 0.06 0.00 0.00 0.00 0.08 0.05 0.31 0.15 0.22 0.37 0.75 0.25 0.44 0.68 0.40 1.54 0.60 1.04 0.97 0.92 0.48 0.30 0.54 0.57 0.62 0.92 0.55 0.70 0.65 0.80 0.83 0.78 1.01 0.64 0.29 0.53 0.27 0.45 0.44 0.80 0.85 0.85 1.12 1.00 1.04 0.95 0.81 0.46 0.50 0.56 0.60 0.95 1.11 1.98 2.63 1.97 1.61 1.56 1.27 0.66 0.53 0.34 0.43 0.42 0.43 0.42 0.45 0.37 0.06 0.24 0.07 0.10 0.10 0.05 0.06 0.01 0.03 0.02 0.02 0.02 0.03 0.04 0.03 0.02 0.04 0.03 0.05 0.15 0.07 0.06 0.15 0.14 0.32 0.29 0.23 0.26
0.01 0.02 0.01 0.05 0.21 0.17 0.05 0.10 0.30 0.31 0.46 0.54 0.54 0.60 0.50 0.65 1.01 0.45 0.60 0.43 0.51 0.43 0.82 0.93 0.60 0.81 1.04 1.01 0.67 0.48 0.57 0.60 0.54 0.57 0.51 0.61 0.44 0.45 0.45 0.80 0.75 0.95 0.73 0.92 1.18 1.18 0.72 0.36 0.57 0.73 0.46 0.87 0.70 1.10 1.25 1.50 1.93 2.16 2.21 1.25 0.42 0.59 0.69 0.81 0.63 0.30 0.39 0.34 0.23 0.20 0.12 0.09 0.07 0.14 0.05 0.03 0.03 0.03 0.05 0.02 0.03 0.04 0.04 0.03 0.03 0.03 0.04 0.05 0.09 0.08 0.06 0.12 0.09 0.11 0.17 0.18 0.31
0.00 0.00 0.02 0.00 0.06 0.06 0.12 0.04 0.23 0.20 0.41 0.29 1.25 0.90 1.02 1.10 1.27 0.34 0.77 0.69 0.37 0.36 0.28 0.38 0.91 0.87 1.05 1.07 0.91 0.50 0.39 0.81 0.92 0.63 0.36 0.51 0.49 0.88 1.08 1.19 1.04 0.97 1.09 1.20 1.13 1.24 1.30 0.87 0.65 0.72 1.82 1.55 1.04 1.20 1.46 1.91 1.85 1.99 1.77 1.60 1.56 1.58 0.95 0.68 0.34 0.44 0.30 0.29 0.31 0.25 0.29 0.20 0.10 0.11 0.02 0.02 0.05 0.06 0.03 0.06 0.05 0.02 0.05 0.03 0.02 0.03 0.03 0.03 0.07 0.07 0.08 0.08 0.06 0.10 0.14 0.14 0.17
0.01 0.00 0.01 0.00 0.00 0.14 0.03 0.04 0.03 0.24 0.24 0.22 0.43 0.86 0.73 0.80 0.52 0.65 0.71 0.44 0.34 0.40 0.41 0.82 1.42 1.31 1.20 0.74 1.04 1.31 0.83 0.72 0.65 0.47 0.43 0.61 0.72 0.87 1.07 1.04 1.59 1.84 1.31 1.18 1.18 1.14 1.20 1.02 0.41 0.44 0.80 0.70 0.71 0.57 0.72 1.21 1.72 0.81 1.59 1.67 1.91 1.20 0.98 1.21 0.96 0.51 0.38 0.37 0.46 0.25 0.23 0.18 0.35 0.43 0.03 0.05 0.02 0.04 0.02 0.02 0.04 0.03 0.04 0.04 0.05 0.02 0.03 0.05 0.07 0.08 0.04 0.06 0.11 0.18 0.09 0.07 0.09
0.01 0.01 0.04 0.05 0.03 0.12 0.10 0.35 0.02 0.03 0.08 0.30 0.33 0.70 1.01 0.67 0.82 0.80 1.52 1.43 1.16 0.93 1.19 1.34 1.35 1.21 1.04 0.73 1.56 1.44 0.71 0.60 0.45 0.38 0.40 0.74 1.13 0.91 0.91 0.91 1.33 1.86 2.00 1.32 1.26 0.67 0.88 0.64 0.71 0.66 0.98 1.25 1.25 0.78 1.10 1.24 0.64 0.90 1.20 0.83 1.21 1.36 1.09 0.82 1.15 1.10 0.53 0.44 0.27 0.23 0.17 0.39 0.08 0.48 0.07 0.06 0.09 0.07 0.09 0.02 0.06 0.02 0.06 0.05 0.09 0.05 0.06 0.06 0.05 0.06 0.04 0.03 0.06 0.16 0.13 0.08 0.07